星链-35286(STARLINK-35286)

导读

STARLINK-35286是美国SpaceX星链星座下的卫星,于2025年9月26日成功发射,归属星链互联网星座组网计划,该计划旨在为全球提供高速低延迟卫星互联网服务,覆盖偏远地区并补充地面网络覆盖。作为星链批量发射组网的一员,它将和其他星链卫星协同,推进星座部署,助力实现全球卫星互联网的覆盖目标。

基本信息
目录编号:
65803
目录名称:
STARLINK-35286
国际标识:
2025-218N
轨道中心:
EARTH
卫星名称:
星链-35286
卫星全名:
星链-35286(STARLINK-35286)
卫星状态:
在轨 (已飞行343 天)
发射日期:
2025-09-26 UTC
国别 :
美国 (US)
星等 :
--
轨道信息
数据来源 国际轨道数据
星历时间: 2026-09-04T06:00:02+0800
9小时前
查看轨道信息
半长轴: 6872.717km
偏心率: 0.0001064
轨道倾角: 97.285°
近地点辐角 84.382°
升交点赤经 104.478°
平近点角 111.185°
近地点: 493.848km
远地点: 495.312km
周期: 94.504分钟
每日圈数: 15.237372
详细信息
固有亮度:
5
最大亮度:
2.5
卫星平台:
Starlink V1.0
覆盖范围:
全球
运营商:
太空探索技术公司
运营商所在国:
美国
制造商(研发单位):
太空探索技术公司
制造商所在国:
美国
使用方式:
暂无
卫星简介
Starlink 计划是 SpaceX 推出的全球卫星互联网项目,通过发射低轨道卫星,为全球尤其是偏远地区提供高速、低延迟的互联网服务。自 2019 年起,Starlink 已部署数千颗卫星,旨在缩小全球数字鸿沟,推动互联网普及。该项目还为军事、航空等行业提供通信支持,带来广泛经济效益。
2D轨道图
3D轨道图
轨道高度分析图
轨道倾角分析图
轨道综合分析图
查看轨道综合分析图
交会数据列表
事件ID 空间交会对象 最接近时刻(TCA) 交会距离 交会风险概率(CRP) 交会风险指数(CRI) 操作
CDM_260904-182906-170606-580321
2026-09-04T
18:29:51+0000
0.393 km
远距离
2.626871E-4 高风险 0.83
CDM_260904-041306-580306-696121
2026-09-04T
04:13:10+0000
1.439 km
极远距离
4.645399E-6 低风险 0.48
CDM_260905-152903-876506-580321
RE (38765)
2026-09-05T
15:29:45+0000
2.181 km
极远距离
2.344839E-6 低风险 0.42
CDM_260904-134906-426306-580321
2026-09-04T
13:49:31+0000
2.560 km
极远距离
1.481722E-6 低风险 0.38
CDM_260829-231606-442906-580321
2026-08-29T
23:16:40+0000
2.713 km
极远距离
1.353295E-6 低风险 0.38